TURKSAT 4B

Last updated on Tue Sep 22 2026 00:03:13 GMT+0000 (Coordinated Universal Time)

1 40984U 15060A 26264.42762374 .00000111 00000+0 00000+0 0 9993 2 40984 0.0188 141.4135 0002131 41.1446 21.6962 1.00273746 40066
UTC large
Height (km)
Speed (km/s)
/
Latitude / Longitude
Inclination (degrees)
Orbital Period (minutes)
Azimuth
Elevation
Range (km)
Doppler Factor

Next 0 passes for location: London (51.5072 / 0.1276)

No passes found over London.
TURKSAT 4B